Weather in Taranto

Italy     40°27′41″N   17°15′21″E
temp.,
°C
wind,
m/s
gust,
m/s
humid.,
%
clouds,
%
prec.,
mm/h
press.,
hPa
HPBL,
m
24 september, fri
fri2423:00+17n375815 0.0 1021301
02:00+17nnw236168 0.0 1020165
05:00+16nnw125794 0.0 1020109
08:00+17nnw1152100 0.0 1021142
11:00+21sw214088 0.0 1021670
14:00+23sw42345 0.0 1019742
17:00+23s32365 0.0 1018427
20:00+21ssw12422 0.0 1020238
25 september, sat
sat2523:00+20e01450 0.0 102088
02:00+19nne11500 0.0 102032
05:00+18nne11510 0.0 102036
08:00+20nne11460 0.0 102163
11:00+24ssw21370 0.0 1021466
14:00+26ssw42390 0.0 1020632
17:00+25ssw33460 0.0 1020381
20:00+22sw01620 0.0 102184
26 september, sun
sun2623:00+22ese01652 0.0 102171
02:00+21ne11675 0.0 102130
05:00+20nne116430 0.0 102134
08:00+21ene1158100 0.0 102155
11:00+25ssw2147100 0.0 1021394
14:00+27ssw3345100 0.0 1020519
17:00+26ssw32494 0.0 1018371
20:00+23sw11654 0.0 101984
27 september, mon
mon2723:00+22nnw116823 0.0 101942
02:00+22nw115944 0.0 101832
05:00+22sw126367 0.0 101768
08:00+22nne016670 0.0 101656
11:00+26sw225623 0.0 1016344
14:00+29ssw434777 0.0 1015509
17:00+26sse345897 0.0 1013235
20:00+24sw1168100 0.0 101436
28 september, tue
tue2823:00+24n376575 0.1 1015205
02:00+22n5107395 0.8 1016406
05:00+22n5107795 0.1 1015474
08:00+22nnw487291 0.1 1016532
11:00+26nnw55525 0.0 10161026
14:00+28nnw554517 0.0 10141404
17:00+27n66510 0.0 1014807
20:00+23n48630 0.0 1015311